Location: *
(51.0333°S, 178.4667°E)
Time: 21:37:39
(UTC+00:00)

Okean 1-7 - Pass Details

Date: 15 November 2019
Orbit: 592 x 618 km, 82.5° (Epoch: 05 December)

Event Time Altitude Azimuth Distance (km) Brightness Sun altitude
Rises 08:37:40 0° 193° (SSW) 2,915 7.6 -8.7°
Reaches altitude 10° 08:39:56 10° 195° (SSW) 1,998 6.7 -9.0°
Maximum altitude 08:44:19 67° 277° (W) 671 3.4 -9.4°
Drops below altitude 10° 08:48:37 10° 358° (N) 1,954 5.2 -9.9°
Enters shadow 08:49:38 - 360° (N) 2,364 5.6 -10.0°
